In Rescue
 
Open Full Screen Window  High Contrast Mode
December 19, 2018 7:25 AM PST
Weather Information
Wind Direction
  ---
Wind Speed
  00 kt (0 mph)
Wind Gust
  00 kt (0 mph)
Altimeter
30.28 in
Visibility
7 SM
Temperature
05° C
41° F
Dewpoint
04° C
39° F
Humidity
93%
1hr Rain Fall
00.00 in.
24hr Rain Fall
00.00 in.
Sky Condition
Clear
VFR

METAR KCVH 191525Z AUTO 00000KT 7SM CLR 05/04 A3028 RMK A01

FAA Disclaimer: The data displayed is for advisory purposes only and is not to be used for flight planning or operations.